Wind_Speed
58 55 53 52 52 51 45 36 34 37 41 44 43 40 39 36 32 32 34 35 35 34 33 35 37 35 33 34 36 36 33 31 30 29 30 31 32 30 28 26 26 28 32 36 37 38 38 38 39 41 43 44 42 40 38 36 34 33 33 32 30 29 29 30 30 29 28 27 28 27 27 26 25 25 25 24 23 22 21 20 19 19 18 17 17
63 62 61 61 60 54 48 45 41 39 44 47 42 35 31 30 29 30 33 34 34 33 33 34 36 35 33 35 37 38 36 35 32 32 32 31 31 30 28 26 26 27 28 31 35 38 39 39 39 40 42 44 45 45 44 42 39 37 36 34 32 31 31 31 29 29 28 28 28 28 28 27 26 26 26 24 24 23 21 20 19 19 19 17 17
67 65 64 62 58 51 47 47 46 45 47 50 46 37 33 33 29 29 32 32 31 32 34 35 35 34 34 35 37 38 38 37 33 32 33 32 30 28 26 26 26 27 27 27 30 34 37 38 39 40 42 44 45 46 47 45 44 41 38 36 34 32 30 30 29 28 27 27 27 27 28 28 27 26 25 23 23 23 23 22 20 20 20 19 18
66 63 61 57 52 49 46 46 49 46 40 42 44 40 39 36 28 27 30 29 28 30 34 36 36 35 34 35 35 36 38 38 35 32 33 32 29 27 26 26 28 28 27 26 28 31 35 36 37 38 39 42 44 44 45 46 45 43 40 38 36 34 32 32 32 31 29 28 27 27 27 27 26 26 25 24 23 23 23 23 22 21 22 21 21
61 58 56 51 45 46 46 43 41 36 34 37 41 40 38 33 27 25 27 27 27 27 31 33 34 34 33 33 33 34 36 38 37 33 32 31 29 27 27 28 29 29 29 29 29 30 32 33 34 35 37 39 41 43 44 46 45 43 42 41 39 37 36 35 35 35 33 31 29 27 28 27 26 26 26 25 23 22 22 23 23 23 24 24 24
56 53 51 43 36 36 37 36 35 34 38 42 43 40 33 28 24 22 24 25 25 26 27 29 31 32 33 33 33 33 34 38 40 37 34 33 32 32 31 29 28 29 31 32 31 30 30 31 32 33 35 36 38 41 44 46 46 45 44 44 43 40 40 39 38 37 35 33 30 28 28 28 27 26 26 25 24 22 22 22 23 25 26 27 26
51 48 44 39 36 32 30 33 38 38 39 41 42 39 32 26 23 23 24 24 25 25 26 28 30 32 34 35 34 33 34 37 40 41 38 36 35 33 30 28 28 28 29 29 30 30 30 31 31 32 33 34 36 39 43 45 46 46 44 44 43 42 41 41 40 40 38 36 34 32 30 29 27 27 27 26 26 24 23 23 24 26 28 30 29
47 43 38 38 39 38 34 34 35 35 34 37 41 40 33 27 24 24 25 25 26 26 26 28 30 34 35 36 35 33 33 35 39 41 39 38 36 32 29 29 29 28 26 23 24 26 29 30 30 31 32 32 34 37 41 44 46 47 45 43 42 41 40 41 42 43 43 41 40 38 35 32 30 29 28 27 26 25 25 25 25 26 28 31 31
44 42 39 41 42 40 39 36 32 32 32 36 41 41 34 27 24 24 25 26 27 26 25 27 29 34 37 36 36 34 33 34 37 40 38 36 35 32 30 29 29 29 28 25 23 23 26 29 30 30 31 31 33 35 38 43 46 47 47 45 42 40 39 40 41 42 43 42 40 38 36 34 32 30 29 27 25 26 27 27 26 26 27 30 31
40 40 39 40 38 35 35 33 32 32 33 36 39 37 31 28 26 26 26 25 25 26 25 26 28 32 37 37 36 34 34 35 36 37 36 34 33 32 31 30 29 30 31 31 30 28 27 28 30 30 30 30 31 33 35 39 42 45 46 46 44 41 40 40 41 41 41 40 38 36 34 34 33 32 30 28 26 26 27 27 27 27 27 29 31
38 37 36 36 33 31 31 30 32 35 34 34 34 32 28 28 28 28 29 28 28 30 28 28 29 31 34 37 37 34 34 36 36 36 36 35 35 34 34 33 31 31 31 33 34 32 29 27 28 29 29 30 32 32 33 34 37 40 43 44 44 43 41 41 42 41 40 39 37 36 34 34 34 33 32 30 28 28 27 27 27 28 28 30 30
34 33 33 33 31 31 33 33 36 38 34 29 29 28 29 32 33 32 32 33 32 32 32 32 32 32 33 34 36 34 34 37 38 38 38 38 38 37 37 35 34 32 32 32 31 30 28 25 26 28 29 31 32 32 32 32 33 35 38 40 42 43 42 42 42 42 42 40 38 37 36 35 34 34 33 31 29 29 28 27 27 27 28 28 27
31 31 30 31 30 31 36 38 40 40 35 31 28 26 29 36 38 35 34 32 30 31 33 33 32 33 34 34 34 33 34 38 40 40 41 40 40 39 39 38 38 37 35 32 30 29 28 27 26 27 28 28 30 31 32 32 32 33 36 38 40 42 43 43 43 43 42 41 39 38 37 36 35 34 33 32 31 30 29 28 27 27 27 26 26
28 28 29 29 30 31 36 40 41 41 38 34 32 30 30 34 37 35 31 29 31 31 32 33 33 34 35 36 36 34 34 38 40 40 42 42 41 41 41 42 42 41 38 34 33 32 31 30 29 28 27 26 27 29 30 30 31 32 34 37 39 40 42 43 45 45 43 42 42 40 39 38 37 36 35 34 33 32 30 29 29 29 28 28 29
26 27 27 28 29 31 34 39 42 44 42 38 36 35 32 32 36 36 32 32 37 37 32 32 36 38 37 37 39 39 37 39 40 40 41 40 39 41 42 42 41 41 40 38 36 35 34 33 33 33 31 30 30 31 31 31 31 31 32 34 36 38 40 42 44 46 47 46 45 44 43 41 39 38 37 36 35 33 32 32 32 32 32 32 31
25 26 27 27 28 30 33 37 41 44 46 43 41 41 39 38 40 40 38 38 39 39 35 35 39 40 39 39 40 41 40 40 41 41 42 39 37 39 40 40 39 38 39 41 39 37 37 38 38 38 38 37 36 35 35 34 33 32 32 32 33 34 37 39 41 43 47 49 49 48 47 46 44 41 39 38 37 35 33 33 33 34 34 34 34
25 26 27 27 28 29 31 34 39 43 47 48 45 44 44 43 42 42 41 41 41 41 38 38 41 41 40 41 42 41 41 41 41 41 41 40 39 39 39 39 38 37 38 39 40 39 39 40 41 41 41 40 38 37 36 36 35 34 33 31 30 31 33 35 37 39 42 46 49 49 48 47 47 45 43 40 39 38 35 34 34 35 35 35 34
26 26 27 28 28 28 29 32 36 40 45 49 49 47 46 46 45 43 42 43 46 45 42 41 44 43 41 41 42 42 42 42 43 42 41 41 41 40 40 40 38 38 38 37 36 37 38 40 42 42 43 42 40 38 36 36 36 35 35 33 31 31 31 31 33 35 37 40 44 47 47 46 45 45 45 43 41 39 37 36 35 35 35 34 33
28 28 29 30 31 31 31 32 34 38 42 46 49 50 49 48 48 47 45 46 49 47 44 42 43 44 42 40 41 42 44 44 43 43 42 41 40 39 40 40 38 37 38 36 35 36 38 40 40 40 43 44 42 39 38 37 37 38 38 37 35 34 32 30 30 31 33 35 38 42 46 46 45 44 45 44 43 41 40 38 37 37 36 35 34
29 30 32 32 33 33 33 33 33 36 39 43 47 49 50 50 50 50 48 48 50 48 45 43 42 43 43 42 41 42 44 45 44 43 43 41 39 38 38 38 37 37 37 37 37 38 38 40 40 39 41 43 42 41 39 38 39 40 41 41 40 37 35 32 30 29 29 29 31 35 40 44 47 47 47 46 45 43 41 41 40 40 39 39 38
30 31 33 33 34 34 34 34 34 35 38 41 44 47 49 50 50 51 49 49 50 48 47 45 43 43 44 44 43 43 43 45 45 44 43 41 39 39 39 38 37 37 37 37 38 40 42 42 43 40 40 41 41 41 40 39 40 41 43 44 40 38 36 33 31 30 29 28 28 29 30 34 40 44 47 48 49 48 46 45 44 44 44 44 44
31 31 32 33 34 35 35 35 35 36 37 39 42 45 47 49 49 50 51 50 50 49 50 49 45 45 46 46 46 45 44 45 46 46 45 42 40 40 40 39 39 38 39 39 40 43 45 45 45 44 43 42 42 43 41 41 42 42 44 44 40 38 38 36 33 32 31 30 30 29 27 27 30 34 38 42 46 48 48 49 48 48 48 48 47
32 32 33 33 34 35 36 36 36 36 38 39 41 43 45 47 48 49 50 51 52 52 53 53 49 48 49 50 50 48 46 46 46 47 48 46 44 44 43 43 42 40 41 41 42 43 45 45 45 47 46 45 44 45 43 42 41 42 45 44 41 41 40 38 35 33 33 32 32 31 29 28 28 29 31 33 36 39 42 43 45 46 46 47 47
34 33 33 33 33 34 35 36 36 36 38 39 40 41 43 45 46 47 48 51 55 55 56 56 53 50 50 51 52 51 49 48 47 47 49 49 48 47 47 47 45 44 43 43 43 44 45 45 47 48 48 47 47 47 46 45 44 44 46 46 44 44 42 39 36 35 34 35 35 34 32 30 29 29 30 30 31 33 34 35 36 37 38 40 41
35 35 34 34 33 34 35 36 36 37 38 39 40 40 41 42 43 45 46 48 54 58 59 58 56 54 51 50 51 52 52 51 49 49 49 50 50 49 50 50 48 47 46 45 45 45 45 46 47 49 48 47 47 47 47 48 47 46 47 48 47 45 43 40 38 37 37 38 38 38 36 34 32 31 29 29 29 30 31 31 31 30 31 32 33
36 36 36 35 35 34 34 35 36 37 38 39 40 41 41 41 42 43 44 46 50 56 60 60 58 57 55 51 50 51 53 52 51 51 50 49 49 49 50 50 48 48 48 49 48 47 47 48 48 48 48 47 47 48 48 48 48 47 48 49 48 46 45 43 43 43 43 42 42 42 41 38 36 34 31 29 28 28 28 29 28 28 28 28 28
39 39 38 37 37 36 35 35 36 38 39 40 41 42 42 42 41 42 43 45 47 52 57 59 59 58 58 57 53 51 53 54 53 51 51 51 50 50 51 50 48 47 48 50 51 51 50 51 50 49 48 48 49 49 48 48 47 47 49 49 48 47 47 46 47 48 48 47 46 45 44 43 41 39 36 32 30 28 27 27 28 28 28 27 27
41 41 41 40 39 38 37 36 36 37 39 40 42 43 43 43 43 42 43 44 46 49 52 56 58 58 58 60 60 56 53 54 55 54 52 52 53 53 54 54 52 51 49 49 51 52 53 53 53 52 51 51 51 50 50 49 48 49 50 50 49 48 47 48 50 50 50 49 48 46 46 46 45 44 41 38 35 32 31 30 30 31 31 30 30
43 43 44 43 43 42 41 40 39 38 39 40 42 44 45 45 45 45 45 45 45 47 50 53 56 58 58 60 62 62 59 56 56 57 56 56 56 56 57 57 57 56 55 54 53 53 53 55 56 55 55 54 53 52 52 52 51 52 53 52 51 50 49 51 52 51 50 50 49 48 47 47 48 47 45 43 41 39 38 37 36 35 35 34 34
47 47 47 47 47 47 46 45 44 42 41 41 42 43 45 46 47 47 47 47 46 47 49 51 54 56 58 59 61 63 64 62 59 59 59 60 60 60 59 60 60 59 59 59 58 57 57 57 57 58 58 57 56 56 56 55 55 55 55 54 53 52 52 52 52 51 51 51 51 50 49 49 49 48 47 46 45 44 43 43 41 40 39 38 37
50 50 50 50 50 50 50 50 49 48 46 44 43 43 45 46 47 48 48 48 48 49 50 51 53 55 57 59 60 61 64 65 64 62 62 62 63 63 63 63 62 61 61 62 61 60 61 61 60 60 60 61 60 59 58 57 58 58 57 56 55 55 54 54 53 52 52 53 54 53 53 51 50 49 49 48 48 47 46 46 46 45 44 43 41
54 54 54 53 53 53 53 52 52 52 51 49 48 46 46 46 47 48 49 49 49 50 51 52 53 55 57 59 60 60 62 64 65 66 66 65 64 65 66 66 65 64 63 64 64 63 63 64 64 63 62 62 61 60 59 59 59 59 58 56 56 56 56 55 55 55 55 56 57 57 56 54 53 52 51 51 50 50 50 49 49 50 49 48 46
57 57 57 57 57 56 55 55 54 54 54 53 52 51 50 49 48 48 49 49 50 50 52 53 53 54 57 59 60 60 61 62 63 65 67 67 67 67 67 67 68 68 66 65 65 66 66 67 67 66 65 65 64 62 61 61 61 61 60 59 58 58 58 58 57 57 57 57 58 58 58 56 55 55 54 54 54 54 54 54 54 54 54 53 51
58 59 59 59 59 59 59 58 57 56 56 56 56 55 54 53 52 51 51 50 50 51 51 53 55 55 56 57 59 61 62 62 63 64 65 67 68 69 70 69 69 71 71 69 67 66 67 69 70 70 69 68 68 67 66 65 65 64 63 63 61 60 61 60 60 59 58 58 58 58 57 57 57 57 58 58 58 58 58 58 58 58 57 56 54
61 61 61 61 61 61 61 61 60 60 59 59 58 58 58 57 57 56 55 53 52 52 52 53 54 56 56 57 58 59 61 63 63 64 65 66 67 69 71 72 71 71 72 73 72 69 68 68 70 72 73 72 72 71 70 69 69 68 67 66 64 62 61 62 64 63 63 63 63 60 59 59 59 60 61 62 62 62 62 61 61 60 60 59 57
61 62 63 64 64 63 63 62 62 63 63 63 62 61 61 60 60 60 59 58 57 55 55 55 56 56 57 58 58 59 60 61 63 64 65 66 67 68 70 72 73 73 73 74 74 74 72 69 69 70 73 74 74 74 74 73 73 72 71 71 69 67 64 63 64 65 65 66 66 64 63 63 63 63 64 65 66 66 66 65 65 64 63 63 61
62 63 64 64 64 64 65 65 66 66 66 66 65 65 64 63 63 62 62 62 61 61 59 59 59 59 59 59 60 60 61 61 62 63 65 66 66 67 69 70 71 73 74 74 74 75 76 75 73 71 71 72 73 74 75 75 76 75 75 74 74 74 72 70 69 69 68 69 69 68 68 67 67 68 69 69 69 69 69 69 69 68 68 68 67
66 65 65 65 64 64 66 68 70 70 69 68 67 67 67 67 66 65 65 64 64 64 64 64 63 63 63 63 62 63 63 63 64 64 64 65 66 66 67 69 70 71 72 73 74 74 76 77 77 77 75 74 73 73 74 74 75 77 77 77 77 77 78 78 78 78 78 78 78 78 77 77 76 77 77 76 75 74 73 72 72 72 71 71 71
67 66 67 67 66 66 68 69 70 71 71 71 71 70 70 70 70 69 68 68 67 67 68 68 68 68 67 67 66 66 66 66 66 66 65 66 66 66 67 68 69 70 70 72 72 73 74 75 76 78 79 78 77 77 76 75 75 76 77 78 79 80 80 81 82 82 83 83 84 83 83 83 83 82 82 81 80 78 77 77 76 75 74 74 73
66 64 65 66 66 66 69 72 71 70 71 72 72 73 73 72 72 72 72 71 70 70 71 70 71 71 71 71 71 70 70 69 68 68 68 68 68 68 68 68 69 70 71 71 72 72 73 73 74 76 77 78 79 79 79 79 78 78 77 78 79 80 81 82 82 83 84 84 85 85 84 85 85 85 85 84 83 82 81 81 80 79 78 76 75
65 65 65 65 65 66 69 71 71 71 73 74 74 74 75 75 75 74 74 74 73 73 73 74 74 74 74 75 75 74 74 73 72 71 70 70 70 70 70 70 71 71 72 73 73 73 73 73 74 75 75 76 78 79 79 80 80 80 80 80 80 81 82 82 83 84 84 84 85 85 86 86 87 87 87 87 86 85 84 83 82 81 81 79 77
64 66 67 67 66 66 67 69 69 70 73 76 77 77 78 78 77 77 77 76 76 76 76 76 77 77 78 78 78 78 78 77 76 75 74 73 72 73 73 73 73 74 74 75 75 75 75 74 75 75 75 76 77 78 78 79 79 79 80 81 82 83 83 84 85 86 86 86 85 86 86 87 86 86 87 87 87 87 85 84 83 83 82 81 79
63 64 65 67 66 63 64 67 69 71 71 73 77 79 79 79 79 80 80 80 80 80 79 79 79 80 81 80 80 81 81 80 80 79 79 78 77 76 76 76 76 76 76 76 77 77 77 77 77 77 77 77 79 79 78 78 79 79 79 80 81 82 83 84 85 86 88 87 87 87 88 88 87 86 86 87 86 86 84 83 83 85 85 83 81
65 64 66 68 68 67 68 70 71 71 70 72 76 78 77 78 79 81 82 83 84 84 83 83 83 83 83 82 83 83 83 83 83 82 82 82 81 81 80 80 79 78 78 78 78 79 79 79 79 80 80 80 80 80 80 80 80 80 80 81 81 81 82 83 84 86 87 87 87 87 88 89 89 89 88 89 88 88 86 84 85 88 88 87 85
67 67 68 70 70 71 72 73 72 70 70 73 75 75 75 76 77 79 82 84 85 86 85 85 86 87 86 85 85 85 85 85 85 85 85 85 85 85 85 84 84 83 82 81 81 81 81 81 82 82 83 83 82 82 83 83 82 82 82 82 82 82 82 83 83 84 86 86 86 86 87 89 90 90 89 89 90 89 86 85 87 89 90 89 88
71 70 70 71 72 72 73 73 72 71 72 74 75 75 76 76 76 79 81 82 84 85 85 85 87 88 89 89 88 87 87 87 87 87 88 88 88 88 88 88 87 87 86 85 85 85 85 85 85 85 86 85 85 85 86 86 85 85 84 84 84 84 84 83 84 84 86 87 86 86 86 88 90 90 89 90 90 89 86 85 87 89 90 90 89
74 73 72 73 73 73 73 72 71 71 73 75 75 75 76 76 78 79 81 82 83 84 83 83 85 87 89 90 90 91 91 90 89 89 90 91 91 91 90 90 90 90 90 90 90 90 89 89 88 88 88 88 88 88 89 89 89 88 88 87 87 86 86 85 86 86 86 87 88 87 86 87 89 90 90 90 91 90 87 85 87 90 91 91 90
77 75 75 75 74 74 73 72 71 72 74 74 74 74 75 76 78 80 81 82 83 83 82 82 83 85 86 87 89 92 93 93 92 91 92 93 93 93 93 93 93 93 93 94 94 94 94 93 92 91 91 91 92 92 92 92 92 92 91 90 90 90 89 89 88 88 88 89 90 89 88 88 90 91 91 92 92 91 88 86 87 90 92 93 92
78 77 76 75 74 74 73 72 72 73 73 72 72 73 74 75 77 80 82 83 83 82 82 82 83 84 84 85 88 90 92 92 93 93 94 96 96 95 94 95 95 96 96 97 97 97 97 96 96 95 95 95 96 96 96 96 96 96 95 93 93 94 93 92 92 92 92 92 93 93 92 92 94 94 94 94 94 94 92 89 87 88 92 95 93
79 79 77 75 74 74 74 74 74 73 73 72 72 73 73 74 76 79 82 83 84 83 82 82 83 83 83 85 86 88 89 90 91 92 94 96 97 97 97 97 97 98 99 100 100 100 99 99 99 99 99 99 99 100 100 100 100 100 99 97 97 98 97 96 96 95 95 96 97 98 98 97 98 98 99 99 98 98 97 96 92 90 92 97 96
80 80 78 75 75 76 76 76 74 74 73 72 73 73 74 75 76 78 80 83 84 83 83 83 83 83 84 85 85 86 87 88 89 90 92 93 95 96 98 99 100 101 102 102 102 102 102 102 102 102 102 102 103 103 103 103 103 103 102 101 101 101 100 100 100 99 99 100 101 102 102 102 103 103 103 103 103 102 102 101 98 95 95 98 99
Wind_Direction
269 270 272 272 274 277 277 270 265 270 278 285 286 284 280 276 271 265 264 264 257 249 246 246 248 248 246 245 245 241 232 218 219 232 236 236 233 234 241 244 247 247 245 244 242 239 237 237 238 240 243 245 246 244 243 244 245 247 248 250 253 255 256 259 261 259 260 263 265 266 267 270 272 273 274 272 268 264 264 269 272 273 269 264 262
270 272 273 274 277 277 273 265 258 267 279 283 283 282 277 272 266 262 263 261 254 248 247 246 247 250 248 247 246 242 229 215 218 230 234 238 236 235 240 244 247 247 247 246 241 238 236 236 237 238 239 242 243 244 245 244 244 244 245 248 253 256 257 258 258 256 257 262 266 267 267 268 270 271 273 273 268 263 261 265 269 270 269 266 264
273 274 274 276 278 275 270 262 259 271 280 278 275 275 276 274 266 258 256 259 256 250 249 247 248 251 249 248 247 243 231 216 217 228 231 234 236 237 241 247 253 252 250 249 242 238 236 237 237 237 237 238 239 241 243 245 246 246 246 248 253 256 256 255 254 253 255 259 263 265 265 266 267 268 270 271 268 263 260 261 265 268 269 268 268
274 275 276 276 273 269 267 266 267 272 273 270 270 272 277 275 263 253 251 257 261 255 251 250 250 250 248 249 246 242 234 219 215 225 229 230 233 236 239 249 258 258 257 257 250 241 237 238 239 240 239 237 237 239 241 243 246 247 246 248 251 251 251 251 251 251 251 254 258 260 262 264 264 264 266 268 267 261 257 256 261 265 267 267 269
275 274 275 273 269 266 266 268 268 259 250 257 268 272 273 266 255 254 256 259 263 261 258 255 252 250 248 248 244 240 235 224 216 218 226 229 231 235 240 250 257 259 261 263 259 248 241 241 241 243 243 240 238 237 239 241 242 244 244 245 247 247 247 249 250 250 251 253 255 258 262 264 263 261 264 267 264 257 252 253 258 262 265 265 266
271 269 269 266 261 264 265 262 259 252 249 254 263 266 263 256 251 254 260 264 266 266 264 257 247 243 247 246 241 236 231 226 221 216 218 225 231 237 243 249 253 258 264 265 261 250 242 241 242 243 244 243 240 237 237 239 240 242 242 243 244 246 246 248 250 251 252 252 254 258 263 265 263 261 262 265 262 254 249 253 257 260 262 263 263
267 265 265 261 253 256 259 256 257 258 254 253 257 257 253 250 247 248 255 262 264 263 260 251 237 230 239 244 240 235 231 227 225 221 218 218 226 234 238 243 249 258 265 265 258 248 242 241 242 244 245 244 242 240 239 239 240 241 243 244 245 247 249 251 252 253 254 254 256 260 264 264 263 262 262 263 260 253 250 253 256 259 260 260 261
263 260 258 255 251 250 252 252 254 253 247 246 252 253 250 246 242 246 252 254 255 253 251 247 233 223 231 242 241 237 233 228 226 226 224 220 221 226 230 237 245 255 262 263 259 253 248 244 244 246 246 246 244 243 242 240 240 240 242 244 246 248 251 254 255 256 257 258 259 262 263 264 262 261 261 262 259 253 251 253 256 258 259 260 260
260 257 251 249 249 249 251 249 243 240 237 238 246 251 247 239 236 242 247 247 245 242 243 244 234 224 226 236 241 238 233 228 226 227 228 224 221 222 226 233 242 253 261 264 267 268 261 251 246 246 247 247 246 245 245 244 242 240 240 241 243 246 249 252 256 258 260 262 263 264 264 263 261 259 259 259 257 254 253 253 256 260 262 262 261
258 257 253 250 249 247 246 244 235 230 231 234 242 247 242 236 234 235 239 238 235 238 242 244 238 230 228 231 237 238 231 225 225 227 227 225 225 227 230 233 239 250 259 263 265 270 271 259 248 246 246 247 248 247 246 247 246 244 241 240 240 243 246 250 253 257 261 264 265 265 264 262 259 256 256 255 255 255 257 257 258 260 262 263 263
256 254 252 249 247 239 233 237 232 224 226 230 235 238 234 235 235 231 233 233 237 245 248 247 240 232 232 232 234 236 231 225 223 224 225 225 226 230 234 236 237 242 249 255 259 262 267 263 249 244 245 245 246 246 247 247 247 246 245 244 241 241 244 248 252 255 258 261 263 263 262 260 258 255 253 253 253 256 259 260 259 259 259 261 263
253 250 248 245 239 230 223 227 227 220 218 220 229 232 227 229 232 233 238 240 246 250 248 245 237 227 227 227 231 234 229 223 221 222 224 225 225 226 231 236 239 242 242 244 249 253 259 262 252 244 242 244 246 247 248 248 247 247 247 247 245 243 243 246 250 254 256 257 258 259 259 258 257 255 252 251 252 255 258 260 259 257 257 258 260
249 246 243 239 233 225 218 220 222 216 210 210 216 223 227 229 230 234 241 245 247 246 243 239 229 224 224 221 225 229 224 221 222 224 225 226 226 224 226 231 235 240 241 239 242 246 251 256 256 251 246 245 247 248 250 251 251 250 249 249 248 246 245 245 248 251 254 255 255 256 257 257 256 255 253 251 251 253 256 258 257 256 256 258 261
246 243 240 236 230 224 219 218 218 213 207 206 208 213 224 231 227 226 232 237 235 234 237 231 217 218 223 222 224 226 223 222 222 224 227 228 228 226 226 229 229 232 235 237 239 242 247 252 254 253 247 243 246 248 249 251 252 253 253 253 252 251 249 247 247 249 252 254 255 255 257 257 256 254 253 252 253 254 256 256 256 256 257 260 263
243 241 238 234 229 224 220 218 216 213 209 207 207 209 216 223 221 218 220 226 227 226 232 228 215 215 221 221 223 223 223 223 221 222 226 228 229 229 231 233 233 233 235 235 235 236 240 247 249 247 241 238 240 243 245 247 249 251 254 255 256 255 253 251 248 248 250 252 255 256 257 258 257 256 254 253 254 256 257 258 258 259 260 261 264
242 239 236 234 230 225 221 220 218 216 213 211 211 212 215 217 217 217 220 224 224 224 229 227 218 217 220 221 221 221 221 223 222 222 225 226 228 230 232 235 237 237 237 237 236 234 235 238 239 237 235 236 238 241 244 246 247 248 250 253 256 257 257 255 253 251 250 250 252 255 257 258 258 258 256 254 255 257 258 258 258 260 261 263 265
239 236 234 232 231 229 225 223 221 219 217 217 217 218 220 220 219 219 221 224 225 225 228 228 221 218 219 221 221 220 219 221 222 223 224 224 227 230 232 235 236 236 235 237 239 239 236 235 234 233 235 239 243 245 247 248 247 247 248 250 252 256 258 258 258 256 253 251 251 252 254 256 258 258 257 256 256 257 256 255 255 257 260 262 265
233 232 231 230 232 233 231 228 225 224 221 221 222 221 223 224 223 221 220 223 226 228 230 229 223 219 219 221 222 220 220 221 223 224 224 224 226 229 232 235 235 234 233 233 236 239 239 239 239 240 242 244 247 247 249 251 248 246 247 248 248 252 255 258 260 260 258 255 253 251 251 252 255 257 257 257 257 256 255 253 253 253 256 259 262
232 230 229 228 229 232 234 233 230 228 226 225 225 224 225 225 224 223 221 222 226 229 229 227 225 223 222 223 223 221 222 224 225 227 227 226 226 229 233 237 236 235 233 232 233 236 237 239 242 245 246 246 247 246 247 250 250 248 249 249 247 248 250 254 259 261 262 261 257 254 252 251 252 254 255 256 257 256 254 253 253 254 255 256 258
235 234 232 231 230 232 235 236 234 232 229 228 227 227 227 227 225 224 223 223 225 226 224 223 226 228 227 227 226 224 224 226 226 228 229 228 230 232 235 238 238 237 235 232 232 234 233 234 237 241 245 246 247 246 246 249 251 251 252 252 252 252 250 250 255 260 263 264 262 259 256 254 253 253 254 255 256 256 254 253 254 256 256 257 259
239 238 237 236 235 236 237 239 240 237 233 231 230 229 229 229 228 227 225 223 224 224 220 219 225 230 231 230 229 228 228 228 227 228 231 232 234 236 237 238 238 238 237 235 233 232 230 230 233 237 242 245 245 245 246 249 251 252 253 253 256 258 254 251 253 257 261 264 265 263 260 259 258 256 256 256 256 256 255 255 255 257 258 259 260
242 241 240 239 238 239 240 242 242 241 238 234 232 231 230 231 231 230 228 224 223 222 218 217 221 227 231 233 232 231 233 232 230 229 231 233 236 238 239 239 240 239 239 239 237 233 231 232 234 238 241 244 245 245 247 250 252 253 253 253 254 254 252 252 253 255 258 261 262 264 264 264 264 262 260 259 258 258 258 257 258 258 259 260 260
245 244 243 241 240 241 242 243 242 242 240 237 234 232 231 232 232 232 230 226 223 221 218 218 221 222 224 231 234 233 234 236 235 232 232 234 236 239 240 242 243 243 241 241 240 238 236 236 238 241 243 245 247 247 248 251 254 254 252 250 249 248 248 250 252 255 258 260 260 262 263 263 263 264 263 262 260 260 259 259 259 258 258 259 259
247 247 246 244 243 243 242 243 242 241 240 238 237 234 231 231 233 234 233 229 225 223 221 221 223 221 218 224 232 235 236 237 237 236 235 236 237 238 240 243 245 245 244 243 242 241 240 240 240 242 244 246 248 249 250 253 255 254 250 248 247 247 247 249 251 255 258 259 259 260 260 259 259 260 261 262 261 261 261 260 259 259 258 258 259
247 247 248 247 247 246 244 243 242 241 239 238 238 236 233 231 232 234 234 232 228 226 225 225 225 225 221 219 224 231 237 238 237 238 238 238 238 238 240 243 245 246 246 245 243 243 243 241 241 243 244 246 248 249 251 254 254 253 250 248 248 249 250 250 253 257 259 260 259 259 259 257 257 259 260 260 260 259 260 260 259 258 258 258 258
249 248 248 248 248 248 247 245 243 241 239 237 237 237 234 232 232 233 234 234 232 230 229 229 228 227 226 223 220 223 231 237 238 240 240 240 239 238 239 242 243 245 247 247 245 244 244 243 242 242 243 245 247 248 249 251 252 252 251 249 250 251 252 254 255 258 260 260 259 259 259 258 258 258 259 260 260 258 257 258 259 259 258 257 258
251 250 248 248 248 248 248 247 245 243 241 238 237 237 236 234 232 233 233 234 234 234 233 233 232 229 227 227 224 220 224 230 235 238 240 241 240 238 238 240 241 242 245 247 248 246 245 246 246 245 244 245 247 248 249 250 250 250 250 250 251 252 253 255 258 260 261 260 259 259 260 260 259 258 257 258 259 258 256 256 258 260 259 258 258
253 252 251 250 249 248 248 247 247 246 244 241 239 238 238 237 235 233 233 233 234 235 235 236 236 234 230 229 228 226 223 224 228 232 235 238 240 242 242 241 241 242 244 246 248 248 248 248 248 247 246 247 247 248 249 250 250 251 251 252 253 253 253 255 257 259 259 259 259 260 261 261 259 258 257 256 257 257 257 258 260 261 262 262 262
254 253 253 252 251 249 248 247 247 247 246 244 242 241 240 240 239 237 235 233 233 234 235 236 237 238 236 233 232 232 229 226 225 227 231 234 237 241 244 245 245 245 246 247 247 248 249 249 250 250 248 246 247 248 250 251 252 253 254 254 255 255 254 255 256 257 257 257 258 260 261 261 260 258 257 257 257 258 258 259 261 262 264 265 266
255 254 253 252 251 250 249 248 247 246 246 245 244 243 242 242 243 242 240 237 234 233 234 235 237 238 238 238 236 236 236 233 229 226 227 230 233 236 239 242 245 245 245 246 247 248 248 248 249 251 251 249 247 247 249 252 254 254 255 256 257 257 256 256 256 257 257 256 257 258 259 259 259 258 258 257 258 258 259 260 261 262 264 265 266
255 254 254 253 252 251 250 249 248 247 246 245 245 244 244 244 244 244 244 243 239 236 233 234 235 236 238 239 239 239 239 239 238 234 230 229 230 232 234 236 239 241 242 243 244 247 248 248 247 248 250 252 252 250 250 250 252 254 255 256 257 257 258 258 258 259 259 259 259 259 259 258 258 257 257 257 257 258 260 261 263 263 264 265 265
255 254 254 253 252 252 251 250 250 249 247 246 245 245 244 245 245 245 246 246 244 241 238 235 235 236 237 238 239 240 240 241 242 241 239 237 234 232 232 233 234 236 238 240 241 243 245 246 247 247 247 249 251 253 253 253 254 255 256 257 258 259 259 260 261 261 261 262 261 259 259 258 258 257 257 258 258 259 260 262 264 266 266 266 266
254 254 254 253 253 252 252 251 250 250 249 248 247 246 245 245 245 245 245 246 246 246 243 240 237 237 237 237 238 240 240 241 241 242 243 244 242 240 238 235 234 234 235 237 239 240 241 243 245 246 246 247 249 250 252 253 255 257 259 259 259 259 260 261 262 262 263 263 261 260 259 259 259 258 258 259 260 261 262 263 265 267 267 268 267
254 254 254 254 254 253 253 252 252 251 250 249 248 247 246 245 245 245 245 245 246 247 247 244 241 240 239 239 239 240 241 241 242 243 243 244 245 246 246 244 240 238 237 238 239 239 240 241 242 243 244 246 248 250 250 250 251 253 256 259 259 259 259 260 260 261 261 261 261 261 260 260 261 261 262 262 263 265 265 265 266 266 267 268 268
253 253 254 254 254 254 254 253 253 253 252 251 250 249 248 247 246 246 245 245 245 246 247 247 246 244 243 242 242 241 241 242 243 243 244 244 245 246 247 248 248 245 243 242 243 243 242 241 241 242 243 244 245 247 248 248 249 249 251 253 255 256 256 256 257 257 257 258 259 260 261 261 262 262 264 265 266 267 267 267 267 267 268 268 268
254 254 254 254 254 254 255 255 254 253 252 251 250 249 248 248 248 247 247 246 246 245 246 247 247 246 245 245 244 244 243 243 243 244 244 245 246 246 247 248 249 249 248 246 246 247 247 245 242 241 242 244 245 245 246 246 247 248 248 248 250 251 251 251 252 252 253 255 256 257 257 257 258 259 261 262 263 265 266 267 268 269 269 270 269
255 256 257 257 256 254 254 255 254 253 252 251 251 250 249 248 248 248 248 248 247 247 246 246 246 246 246 246 245 245 245 245 244 244 244 245 246 246 247 248 248 249 250 249 249 248 249 249 248 245 244 243 244 245 246 246 246 246 247 247 247 248 249 248 249 249 250 251 253 254 254 254 255 256 258 259 260 262 263 265 267 268 270 271 271
254 256 258 258 258 257 256 254 253 253 252 252 252 251 250 249 248 248 248 248 248 248 248 247 247 246 246 246 246 246 246 246 246 245 245 245 246 246 247 248 249 249 249 250 250 250 250 250 250 249 248 247 245 245 245 245 246 246 247 247 247 247 248 248 249 250 251 252 254 255 256 256 257 258 259 260 260 261 262 264 265 267 268 270 271
255 255 255 255 257 258 259 256 253 252 252 252 252 251 251 250 249 248 248 248 248 249 249 249 249 248 247 247 247 246 246 246 247 247 246 246 247 247 248 248 249 249 250 250 250 250 250 250 250 250 250 250 249 249 247 246 246 246 246 247 247 248 248 248 249 250 250 252 254 255 257 257 258 260 261 261 262 262 263 263 264 265 266 267 268
252 253 254 254 254 256 257 257 255 254 254 252 251 251 251 250 250 250 249 248 248 248 249 250 250 250 250 249 248 248 247 246 246 247 247 247 247 248 248 249 249 249 250 251 251 250 250 250 251 251 251 251 251 251 250 249 249 248 247 247 247 248 248 249 250 250 250 251 252 253 255 256 257 259 260 261 262 263 263 264 265 265 265 265 265
250 249 249 251 251 251 253 256 257 257 257 255 253 253 252 251 250 250 250 250 249 249 249 249 250 251 251 251 250 250 249 248 247 247 247 247 248 248 248 248 249 249 249 250 251 251 251 251 251 251 252 252 252 251 251 251 250 250 249 249 248 248 249 249 250 251 251 251 252 252 253 255 256 257 258 259 260 261 262 263 265 265 265 265 264
251 250 249 249 249 249 251 253 254 255 256 256 256 255 253 253 252 251 251 251 250 250 249 249 249 250 250 251 251 251 251 250 249 249 248 248 248 248 248 248 249 249 250 250 251 251 251 252 252 252 252 253 253 253 253 252 252 251 251 250 250 250 250 250 251 251 251 251 252 253 254 255 255 256 257 258 259 259 260 262 262 263 263 263 263
252 252 251 250 249 250 251 253 254 253 254 256 257 257 256 256 255 254 253 252 251 250 250 249 249 249 249 249 250 251 251 251 251 250 250 250 249 249 249 249 249 249 250 250 251 252 252 252 252 252 252 253 254 254 254 254 253 253 252 252 252 251 251 251 252 252 253 253 253 254 255 255 255 256 257 258 259 259 260 260 261 261 262 262 262
252 252 252 251 250 250 251 254 255 255 255 255 256 258 259 259 258 257 255 254 253 251 250 250 250 249 249 249 249 250 250 251 251 251 251 251 250 250 250 250 250 250 250 251 251 252 253 253 253 253 253 253 253 254 255 255 254 254 254 254 254 253 253 253 253 253 254 254 254 255 256 257 257 257 257 258 258 259 259 260 261 262 262 262 262
255 254 254 254 252 251 252 253 254 255 256 256 257 258 259 259 259 259 257 256 255 253 252 251 251 251 250 249 249 249 249 250 250 250 251 251 251 251 251 251 251 251 251 251 251 252 252 252 253 254 254 254 254 254 255 255 255 255 255 255 255 255 255 255 255 255 255 255 255 256 257 258 258 258 258 259 259 259 259 260 261 262 262 263 262
259 258 256 255 255 254 253 253 254 254 255 256 257 258 258 259 259 259 259 258 257 256 254 253 253 253 252 251 250 249 249 249 250 250 250 250 250 251 251 251 252 252 252 252 251 252 252 252 252 253 254 255 255 255 256 256 256 256 256 255 255 255 256 256 257 257 257 258 257 256 257 258 259 259 259 259 259 259 259 260 261 261 262 263 263
262 261 260 258 257 256 255 254 254 254 253 254 256 257 258 259 259 259 259 259 258 258 256 255 255 255 254 254 253 251 250 249 249 249 250 250 250 250 250 251 251 252 252 252 252 252 252 252 253 253 254 255 255 255 256 256 256 257 257 257 257 257 257 257 257 257 258 258 259 258 258 258 259 260 260 259 259 259 258 258 260 261 261 262 262
263 262 261 261 260 260 259 257 256 255 254 254 255 256 257 258 259 260 260 259 259 259 259 258 257 257 256 256 255 254 252 251 250 250 250 250 250 250 250 250 250 251 252 252 252 252 252 252 253 253 254 255 255 255 255 256 256 257 257 257 258 258 258 258 258 258 258 259 259 259 259 259 260 260 260 260 260 260 259 257 258 259 260 260 260
264 263 262 262 262 262 261 260 259 258 257 256 256 256 257 257 258 259 260 260 260 259 259 259 259 258 257 257 256 255 254 253 252 251 251 251 250 250 250 250 250 251 251 251 252 252 253 253 253 253 254 254 255 256 256 256 256 256 257 257 257 258 258 258 258 259 259 260 260 260 259 259 259 260 260 260 261 261 261 259 258 259 260 261 259
264 264 263 263 263 263 262 262 261 260 259 258 258 257 257 257 258 259 259 260 259 259 259 259 259 258 258 258 257 257 256 255 254 253 253 252 252 251 250 250 250 250 251 251 251 251 252 252 253 253 254 254 255 255 256 256 256 256 257 257 257 258 258 258 259 259 260 261 261 261 261 260 260 260 261 261 261 261 261 261 259 259 260 262 261
264 264 264 264 264 264 263 262 262 262 261 260 259 259 258 257 257 257 258 259 260 260 260 260 259 259 258 257 257 258 258 257 256 255 254 254 253 253 252 251 251 250 250 250 251 251 251 252 252 252 253 254 254 255 256 256 256 257 257 257 257 258 258 258 259 259 260 261 261 262 262 262 262 262 262 262 262 262 261 262 261 260 260 262 263
Height
10717 10718 10719 10720 10721 10722 10724 10725 10719 10711 10709 10708 10706 10704 10703 10703 10704 10704 10704 10704 10705 10705 10706 10708 10709 10710 10713 10715 10715 10717 10719 10722 10726 10729 10731 10733 10735 10737 10739 10740 10742 10743 10743 10744 10745 10746 10748 10749 10751 10753 10754 10755 10757 10758 10759 10761 10762 10764 10767 10769 10771 10773 10774 10775 10776 10777 10778 10779 10780 10780 10781 10782 10783 10783 10784 10785 10786 10786 10787 10787 10787 10786 10787 10787 10787
10709 10712 10713 10713 10714 10716 10717 10717 10714 10708 10705 10704 10703 10701 10699 10699 10700 10700 10700 10700 10701 10702 10703 10704 10705 10707 10710 10711 10712 10713 10716 10718 10721 10724 10727 10730 10732 10734 10736 10737 10739 10740 10741 10741 10742 10743 10745 10746 10747 10749 10751 10752 10754 10755 10756 10758 10759 10761 10763 10766 10768 10769 10771 10772 10773 10774 10775 10776 10777 10777 10778 10779 10780 10780 10781 10782 10783 10784 10784 10784 10784 10784 10784 10784 10784
10701 10703 10704 10705 10706 10706 10707 10708 10707 10705 10702 10698 10697 10696 10696 10696 10696 10696 10697 10697 10698 10699 10700 10701 10702 10703 10705 10707 10708 10710 10712 10715 10717 10720 10723 10726 10729 10731 10732 10734 10735 10736 10738 10738 10739 10740 10741 10743 10744 10745 10747 10748 10750 10751 10753 10755 10757 10759 10761 10763 10765 10766 10767 10768 10770 10771 10772 10773 10773 10774 10775 10776 10777 10778 10778 10779 10779 10780 10781 10782 10782 10782 10782 10782 10782
10692 10694 10695 10697 10697 10696 10698 10700 10700 10701 10698 10692 10690 10691 10691 10691 10691 10692 10694 10694 10695 10696 10697 10698 10699 10700 10702 10703 10705 10707 10709 10711 10714 10716 10719 10723 10725 10728 10729 10730 10732 10733 10734 10735 10736 10737 10738 10739 10741 10742 10743 10745 10746 10748 10750 10752 10753 10755 10757 10759 10761 10762 10763 10764 10765 10767 10768 10769 10770 10771 10772 10773 10774 10775 10775 10776 10776 10777 10778 10779 10780 10780 10780 10780 10780
10685 10686 10687 10689 10689 10687 10690 10693 10693 10693 10691 10687 10686 10686 10686 10687 10687 10689 10690 10691 10692 10692 10693 10695 10696 10696 10698 10700 10702 10704 10706 10708 10710 10713 10716 10719 10722 10724 10726 10728 10729 10730 10731 10732 10733 10734 10735 10736 10737 10738 10740 10741 10743 10745 10747 10748 10749 10751 10753 10754 10756 10758 10759 10760 10761 10763 10764 10766 10767 10768 10769 10770 10771 10771 10772 10773 10773 10774 10775 10776 10777 10777 10777 10777 10777
10678 10678 10678 10681 10682 10681 10685 10687 10686 10686 10685 10683 10682 10681 10682 10683 10684 10685 10687 10688 10689 10689 10690 10691 10692 10693 10694 10696 10698 10700 10702 10705 10707 10709 10712 10716 10719 10721 10723 10726 10727 10728 10728 10729 10730 10731 10732 10733 10734 10735 10736 10738 10740 10741 10743 10744 10746 10747 10748 10750 10752 10753 10755 10756 10758 10759 10761 10763 10764 10765 10766 10767 10768 10768 10769 10769 10770 10771 10772 10773 10774 10774 10775 10774 10774
10669 10670 10672 10675 10675 10676 10681 10680 10679 10681 10679 10676 10676 10677 10679 10680 10681 10682 10683 10685 10686 10686 10687 10686 10688 10690 10691 10692 10695 10697 10698 10701 10704 10706 10709 10712 10715 10718 10720 10723 10725 10725 10726 10726 10727 10728 10729 10729 10730 10732 10733 10734 10736 10738 10739 10741 10742 10744 10745 10747 10749 10751 10752 10753 10755 10756 10758 10759 10761 10762 10763 10764 10765 10765 10766 10766 10767 10768 10769 10770 10770 10771 10772 10772 10772
10659 10663 10668 10670 10669 10671 10674 10674 10673 10674 10673 10671 10670 10672 10675 10677 10678 10678 10679 10681 10682 10683 10683 10683 10684 10687 10688 10689 10692 10694 10695 10698 10701 10703 10706 10709 10712 10714 10717 10719 10721 10723 10724 10724 10725 10725 10726 10727 10728 10729 10730 10731 10733 10734 10736 10737 10739 10740 10742 10744 10746 10748 10749 10750 10751 10753 10754 10756 10757 10759 10760 10761 10762 10762 10762 10763 10764 10765 10765 10766 10767 10768 10768 10769 10769
10652 10655 10660 10662 10663 10665 10667 10668 10668 10668 10669 10669 10668 10668 10672 10674 10674 10675 10676 10677 10677 10678 10680 10681 10682 10684 10686 10687 10688 10690 10693 10695 10697 10700 10703 10706 10708 10711 10712 10715 10717 10719 10721 10722 10722 10723 10724 10725 10725 10726 10727 10729 10730 10731 10732 10734 10735 10736 10738 10740 10743 10745 10746 10747 10748 10749 10751 10752 10754 10755 10757 10758 10759 10759 10759 10760 10760 10761 10762 10763 10764 10765 10765 10766 10766
10646 10649 10651 10653 10656 10659 10659 10661 10663 10664 10665 10666 10666 10667 10669 10670 10670 10671 10673 10673 10674 10675 10678 10679 10680 10682 10683 10684 10685 10687 10689 10692 10694 10697 10699 10702 10704 10707 10709 10711 10713 10715 10717 10718 10719 10721 10722 10723 10723 10723 10725 10726 10727 10728 10730 10731 10732 10733 10734 10736 10739 10741 10743 10744 10745 10746 10748 10749 10751 10752 10753 10754 10755 10756 10756 10757 10757 10758 10759 10760 10761 10761 10762 10763 10763
10641 10643 10645 10646 10650 10652 10651 10654 10658 10660 10661 10662 10663 10665 10667 10667 10666 10667 10669 10670 10672 10673 10674 10676 10678 10679 10681 10682 10682 10683 10686 10688 10691 10694 10696 10698 10700 10703 10705 10707 10709 10712 10714 10715 10717 10718 10720 10721 10721 10721 10722 10723 10724 10725 10727 10728 10729 10730 10731 10733 10735 10737 10739 10741 10742 10743 10745 10746 10747 10748 10749 10750 10751 10752 10753 10753 10754 10755 10755 10756 10757 10758 10759 10759 10760
10636 10637 10639 10641 10644 10646 10645 10647 10652 10655 10657 10658 10659 10662 10665 10664 10663 10664 10665 10667 10669 10669 10671 10672 10674 10676 10677 10678 10679 10680 10682 10685 10687 10689 10691 10694 10696 10698 10701 10703 10705 10708 10710 10711 10713 10715 10717 10718 10719 10719 10719 10720 10721 10723 10724 10725 10726 10727 10728 10730 10731 10733 10735 10737 10738 10740 10741 10743 10744 10745 10745 10747 10747 10748 10749 10750 10751 10751 10752 10753 10754 10755 10755 10756 10757
10631 10632 10634 10636 10638 10640 10640 10642 10646 10649 10651 10651 10653 10657 10659 10658 10659 10661 10662 10664 10665 10665 10666 10667 10670 10672 10673 10674 10676 10677 10679 10681 10682 10684 10687 10689 10691 10694 10696 10698 10701 10703 10705 10707 10710 10712 10714 10716 10717 10717 10717 10717 10719 10720 10722 10722 10723 10724 10725 10727 10728 10730 10731 10733 10735 10736 10737 10739 10740 10741 10741 10743 10744 10745 10746 10747 10748 10748 10749 10750 10751 10751 10752 10753 10754
10626 10628 10630 10631 10634 10636 10637 10639 10641 10643 10646 10646 10647 10650 10651 10652 10654 10656 10659 10660 10659 10659 10661 10663 10666 10667 10668 10670 10671 10673 10674 10675 10678 10681 10683 10685 10688 10690 10692 10694 10696 10699 10702 10704 10706 10708 10710 10712 10714 10715 10715 10715 10716 10718 10719 10720 10721 10722 10723 10723 10725 10726 10728 10729 10731 10732 10733 10734 10736 10737 10737 10738 10740 10741 10742 10743 10744 10745 10746 10747 10748 10748 10749 10750 10751
10622 10623 10625 10627 10629 10631 10633 10635 10636 10638 10640 10642 10643 10644 10645 10645 10648 10651 10653 10653 10653 10655 10657 10660 10662 10663 10664 10665 10666 10668 10670 10671 10674 10676 10678 10681 10684 10686 10688 10690 10693 10696 10698 10700 10702 10704 10707 10709 10710 10711 10712 10712 10713 10715 10716 10717 10718 10718 10719 10720 10721 10722 10723 10725 10726 10728 10729 10730 10731 10732 10733 10734 10735 10737 10739 10740 10741 10742 10743 10744 10744 10745 10746 10747 10748
10618 10619 10621 10623 10625 10627 10629 10630 10632 10633 10635 10636 10637 10638 10639 10639 10642 10645 10647 10647 10648 10651 10654 10657 10659 10660 10661 10662 10662 10664 10666 10667 10670 10672 10674 10677 10680 10682 10684 10686 10689 10693 10695 10697 10699 10701 10702 10703 10705 10706 10708 10708 10709 10711 10712 10713 10714 10715 10716 10716 10717 10718 10719 10720 10722 10723 10724 10726 10727 10728 10729 10730 10731 10733 10735 10736 10737 10738 10739 10740 10741 10742 10742 10743 10744
10614 10616 10617 10619 10620 10623 10624 10626 10628 10629 10630 10631 10632 10633 10634 10635 10637 10640 10642 10643 10645 10647 10650 10653 10655 10656 10658 10659 10659 10661 10662 10663 10665 10667 10670 10673 10675 10677 10680 10682 10685 10688 10690 10692 10695 10697 10698 10699 10701 10702 10703 10704 10705 10707 10708 10709 10710 10711 10712 10713 10714 10714 10715 10716 10717 10718 10719 10720 10722 10723 10725 10726 10727 10729 10731 10732 10733 10734 10736 10736 10737 10738 10738 10739 10740
10611 10612 10614 10615 10617 10618 10620 10622 10623 10625 10626 10627 10628 10629 10630 10632 10633 10636 10638 10639 10641 10644 10647 10650 10651 10653 10654 10655 10656 10658 10658 10659 10661 10663 10666 10668 10671 10674 10676 10678 10681 10683 10685 10688 10690 10693 10695 10696 10698 10699 10700 10700 10702 10704 10706 10706 10707 10707 10708 10709 10710 10710 10711 10712 10713 10713 10715 10716 10717 10719 10720 10721 10722 10724 10726 10727 10729 10730 10731 10732 10733 10734 10734 10735 10736
10608 10609 10610 10611 10613 10615 10616 10618 10619 10621 10622 10623 10625 10626 10627 10629 10630 10632 10634 10636 10638 10641 10644 10646 10648 10649 10650 10652 10654 10655 10656 10657 10658 10660 10662 10665 10668 10670 10672 10674 10677 10679 10681 10684 10686 10688 10690 10692 10694 10696 10696 10696 10699 10701 10702 10703 10703 10704 10704 10705 10706 10706 10708 10709 10709 10710 10711 10712 10712 10714 10715 10717 10718 10719 10720 10722 10724 10726 10727 10728 10729 10730 10730 10731 10732
10604 10605 10606 10608 10609 10611 10612 10614 10615 10617 10618 10619 10621 10622 10624 10626 10628 10629 10631 10633 10635 10638 10641 10643 10644 10645 10647 10649 10650 10652 10654 10655 10656 10658 10659 10662 10664 10667 10669 10671 10673 10675 10677 10680 10681 10683 10685 10687 10689 10690 10690 10692 10695 10697 10698 10699 10700 10700 10700 10700 10701 10703 10704 10705 10706 10706 10707 10708 10709 10710 10711 10711 10712 10714 10715 10717 10719 10721 10723 10724 10725 10725 10726 10727 10727
10601 10602 10603 10604 10605 10607 10608 10610 10611 10613 10614 10616 10617 10619 10621 10622 10625 10626 10628 10630 10632 10635 10637 10639 10641 10642 10643 10645 10647 10649 10650 10652 10654 10655 10657 10659 10661 10663 10665 10667 10670 10671 10673 10675 10677 10678 10680 10681 10683 10685 10687 10689 10691 10693 10694 10696 10696 10696 10696 10696 10698 10700 10701 10702 10702 10703 10704 10705 10705 10706 10707 10707 10707 10709 10710 10712 10714 10716 10718 10719 10720 10721 10721 10721 10722
10597 10598 10599 10600 10601 10603 10604 10606 10607 10608 10610 10612 10614 10615 10617 10619 10621 10623 10625 10627 10629 10631 10633 10635 10637 10638 10639 10641 10643 10645 10647 10648 10650 10652 10653 10655 10658 10659 10661 10663 10665 10667 10669 10670 10672 10673 10675 10677 10679 10681 10683 10685 10687 10688 10690 10691 10692 10693 10692 10693 10695 10696 10697 10698 10699 10700 10701 10701 10702 10703 10704 10704 10704 10704 10705 10707 10708 10710 10711 10713 10714 10715 10716 10716 10717
10592 10593 10595 10596 10597 10598 10600 10601 10602 10604 10606 10608 10609 10611 10613 10615 10617 10619 10621 10623 10625 10627 10628 10629 10631 10634 10635 10636 10638 10641 10642 10644 10646 10648 10650 10651 10653 10655 10657 10658 10660 10663 10665 10666 10667 10668 10670 10673 10675 10676 10678 10680 10683 10684 10685 10687 10688 10689 10687 10688 10691 10692 10692 10694 10695 10696 10697 10698 10699 10699 10700 10701 10701 10701 10701 10702 10703 10704 10705 10706 10707 10709 10710 10711 10711
10588 10589 10591 10592 10593 10594 10595 10596 10598 10599 10601 10603 10605 10607 10609 10611 10613 10615 10616 10618 10620 10622 10623 10624 10626 10628 10630 10632 10634 10636 10638 10640 10641 10644 10646 10647 10650 10651 10652 10654 10655 10658 10660 10661 10663 10663 10665 10668 10670 10671 10673 10676 10677 10679 10681 10682 10683 10684 10682 10683 10686 10687 10688 10689 10690 10692 10693 10694 10694 10695 10696 10697 10697 10697 10697 10698 10699 10699 10700 10701 10702 10703 10704 10705 10706
10585 10586 10587 10588 10589 10590 10591 10592 10593 10595 10596 10598 10600 10602 10604 10606 10608 10610 10611 10613 10614 10616 10617 10619 10621 10623 10625 10627 10628 10630 10633 10635 10637 10639 10641 10643 10645 10647 10648 10649 10650 10652 10654 10656 10658 10659 10661 10663 10664 10666 10668 10670 10672 10674 10676 10677 10678 10679 10678 10678 10680 10682 10684 10685 10686 10687 10688 10689 10690 10690 10691 10693 10693 10693 10694 10695 10695 10696 10696 10696 10697 10698 10699 10700 10701
10580 10582 10583 10584 10585 10586 10587 10588 10589 10591 10592 10594 10595 10597 10599 10601 10602 10604 10606 10607 10608 10610 10611 10613 10615 10617 10619 10621 10623 10625 10627 10629 10631 10633 10635 10637 10640 10642 10643 10644 10646 10647 10648 10650 10652 10654 10656 10657 10659 10660 10662 10665 10667 10669 10670 10671 10673 10674 10673 10674 10676 10679 10680 10681 10682 10683 10683 10684 10685 10685 10687 10688 10689 10690 10690 10691 10692 10692 10692 10693 10693 10694 10694 10695 10696
10575 10577 10579 10580 10581 10582 10583 10584 10585 10586 10588 10589 10590 10592 10594 10595 10596 10598 10599 10601 10602 10604 10605 10607 10609 10611 10613 10615 10617 10619 10621 10622 10625 10627 10629 10631 10633 10635 10637 10639 10640 10642 10643 10644 10646 10648 10650 10652 10653 10655 10658 10660 10661 10663 10665 10666 10668 10668 10667 10669 10672 10674 10676 10677 10677 10677 10678 10679 10680 10681 10682 10683 10685 10685 10686 10687 10688 10688 10689 10689 10689 10690 10690 10691 10692
10571 10572 10574 10575 10576 10577 10578 10579 10580 10581 10583 10584 10586 10587 10588 10589 10591 10592 10593 10595 10596 10598 10599 10601 10603 10605 10607 10609 10611 10613 10615 10617 10619 10621 10623 10625 10627 10629 10631 10633 10635 10637 10638 10639 10640 10642 10644 10645 10647 10649 10652 10654 10656 10658 10659 10660 10662 10662 10662 10665 10667 10669 10672 10672 10671 10672 10673 10674 10675 10676 10677 10678 10680 10681 10682 10683 10683 10684 10685 10685 10685 10686 10686 10687 10688
10565 10566 10567 10569 10570 10571 10572 10573 10574 10576 10577 10579 10581 10582 10583 10584 10585 10587 10588 10589 10591 10592 10594 10595 10596 10598 10600 10603 10604 10606 10608 10611 10612 10614 10616 10619 10621 10622 10624 10626 10628 10631 10632 10634 10635 10637 10638 10639 10640 10642 10644 10647 10650 10652 10653 10655 10657 10656 10657 10660 10662 10665 10666 10665 10665 10667 10668 10670 10670 10671 10672 10673 10674 10675 10677 10678 10679 10679 10680 10681 10681 10681 10682 10683 10683
10558 10559 10560 10562 10563 10564 10565 10567 10568 10569 10571 10573 10575 10576 10578 10579 10580 10581 10583 10584 10586 10587 10588 10589 10590 10592 10593 10595 10598 10599 10601 10603 10605 10607 10609 10611 10614 10616 10617 10619 10621 10624 10626 10627 10629 10631 10632 10633 10635 10636 10637 10639 10643 10646 10647 10649 10650 10649 10651 10654 10657 10659 10659 10659 10660 10662 10663 10664 10665 10666 10667 10667 10668 10669 10671 10672 10673 10674 10674 10675 10676 10676 10677 10678 10679
10551 10552 10553 10554 10556 10557 10558 10560 10561 10563 10564 10566 10568 10570 10571 10573 10574 10576 10578 10579 10581 10582 10582 10583 10584 10585 10587 10588 10590 10592 10594 10595 10597 10600 10602 10603 10606 10608 10610 10612 10614 10616 10618 10620 10622 10624 10625 10627 10629 10630 10631 10632 10635 10638 10641 10643 10643 10643 10645 10648 10650 10652 10653 10654 10655 10656 10658 10658 10659 10660 10661 10661 10663 10664 10665 10666 10667 10668 10668 10668 10669 10670 10671 10673 10674
10544 10545 10545 10546 10548 10550 10551 10553 10554 10556 10558 10560 10561 10563 10565 10566 10568 10570 10572 10573 10575 10576 10577 10578 10579 10580 10581 10582 10583 10584 10586 10588 10590 10591 10593 10595 10598 10600 10602 10605 10607 10609 10611 10613 10615 10617 10619 10620 10621 10624 10626 10627 10628 10631 10633 10635 10636 10637 10640 10642 10644 10645 10646 10648 10649 10650 10651 10652 10652 10653 10654 10655 10656 10658 10659 10660 10661 10661 10662 10662 10663 10664 10665 10666 10668
10536 10537 10537 10539 10540 10542 10544 10546 10547 10549 10551 10553 10555 10557 10558 10559 10561 10563 10565 10567 10568 10570 10571 10572 10573 10574 10575 10576 10577 10578 10579 10581 10582 10584 10586 10587 10589 10592 10594 10597 10600 10602 10604 10606 10607 10610 10612 10613 10614 10616 10619 10621 10622 10624 10626 10627 10628 10629 10632 10635 10637 10638 10639 10641 10642 10643 10644 10645 10644 10645 10646 10648 10650 10651 10652 10653 10654 10655 10656 10656 10657 10657 10658 10659 10661
10528 10529 10530 10531 10532 10535 10537 10539 10541 10543 10545 10546 10548 10550 10551 10552 10554 10555 10557 10559 10561 10563 10565 10566 10567 10568 10569 10571 10572 10573 10574 10575 10576 10577 10579 10580 10582 10583 10585 10588 10591 10594 10596 10598 10600 10602 10604 10606 10607 10609 10611 10613 10615 10617 10619 10620 10621 10623 10625 10627 10629 10631 10632 10633 10634 10636 10637 10636 10636 10637 10639 10641 10642 10644 10644 10645 10646 10647 10648 10649 10650 10651 10651 10652 10653
10521 10521 10523 10524 10525 10527 10529 10531 10534 10536 10537 10539 10540 10542 10544 10545 10546 10547 10549 10552 10554 10556 10558 10559 10560 10562 10563 10564 10566 10567 10569 10570 10571 10572 10573 10574 10576 10577 10577 10579 10582 10584 10587 10590 10591 10593 10596 10599 10600 10601 10603 10606 10607 10609 10611 10613 10614 10617 10618 10620 10621 10623 10624 10625 10626 10628 10628 10627 10628 10631 10632 10633 10635 10636 10637 10637 10638 10639 10640 10642 10643 10644 10645 10645 10647
10514 10514 10515 10516 10518 10520 10522 10523 10526 10527 10528 10529 10531 10533 10536 10537 10539 10541 10542 10544 10546 10548 10550 10552 10553 10554 10555 10557 10558 10560 10561 10563 10564 10565 10566 10568 10569 10570 10571 10572 10574 10576 10578 10581 10583 10585 10586 10589 10593 10594 10595 10597 10599 10601 10603 10605 10606 10608 10610 10612 10614 10615 10616 10618 10619 10621 10621 10619 10620 10623 10625 10626 10627 10628 10629 10630 10630 10630 10631 10633 10635 10636 10637 10638 10639
10507 10507 10507 10509 10511 10513 10515 10515 10515 10516 10517 10520 10522 10524 10527 10530 10532 10533 10535 10537 10539 10540 10542 10543 10545 10546 10547 10549 10550 10551 10553 10554 10555 10557 10559 10560 10562 10563 10564 10565 10566 10568 10569 10572 10574 10576 10577 10579 10583 10586 10587 10588 10590 10591 10593 10596 10598 10599 10601 10604 10605 10607 10608 10609 10611 10613 10613 10612 10612 10615 10616 10617 10619 10620 10620 10621 10622 10623 10623 10625 10627 10628 10629 10630 10631
10500 10500 10501 10502 10503 10504 10505 10505 10505 10506 10508 10511 10514 10516 10518 10521 10523 10525 10527 10529 10531 10532 10533 10535 10536 10537 10539 10540 10542 10543 10544 10546 10547 10549 10550 10552 10554 10555 10557 10558 10559 10560 10561 10563 10566 10568 10569 10571 10573 10576 10578 10579 10581 10582 10584 10587 10588 10590 10592 10595 10596 10597 10598 10600 10601 10603 10604 10604 10604 10606 10606 10608 10610 10610 10610 10612 10613 10615 10616 10618 10619 10620 10621 10622 10623
10492 10493 10493 10494 10496 10495 10494 10494 10495 10497 10501 10503 10504 10506 10508 10511 10513 10515 10517 10520 10522 10523 10524 10526 10527 10528 10530 10532 10533 10535 10536 10538 10539 10541 10542 10544 10545 10547 10549 10550 10550 10551 10552 10554 10557 10559 10560 10562 10563 10565 10568 10570 10571 10572 10574 10577 10579 10580 10583 10585 10586 10587 10589 10590 10591 10592 10595 10595 10595 10596 10597 10598 10599 10599 10599 10602 10604 10607 10609 10610 10611 10613 10614 10614 10614
10484 10485 10485 10486 10488 10486 10484 10484 10486 10490 10492 10493 10494 10496 10498 10501 10503 10505 10508 10510 10512 10514 10515 10516 10517 10519 10521 10522 10524 10526 10527 10529 10531 10533 10534 10536 10537 10539 10540 10541 10542 10543 10543 10544 10546 10549 10551 10553 10554 10555 10557 10559 10561 10562 10564 10567 10569 10571 10573 10576 10577 10577 10579 10581 10581 10582 10584 10586 10587 10588 10588 10588 10589 10590 10591 10592 10595 10598 10600 10601 10602 10604 10605 10605 10606
10475 10475 10476 10478 10479 10477 10475 10475 10479 10483 10482 10481 10484 10486 10487 10490 10494 10497 10499 10501 10503 10505 10505 10507 10508 10509 10510 10512 10514 10516 10518 10520 10523 10524 10526 10528 10529 10530 10531 10532 10533 10533 10534 10535 10536 10538 10541 10543 10545 10546 10548 10549 10549 10550 10553 10556 10559 10561 10563 10565 10567 10567 10569 10571 10571 10571 10573 10575 10577 10579 10579 10579 10579 10581 10582 10583 10586 10588 10590 10593 10595 10594 10593 10594 10597
10465 10466 10468 10469 10470 10469 10468 10469 10472 10474 10472 10471 10473 10474 10474 10479 10485 10487 10489 10491 10493 10494 10495 10497 10498 10498 10499 10501 10503 10505 10507 10510 10513 10515 10517 10519 10521 10521 10522 10523 10524 10524 10525 10526 10527 10528 10531 10533 10535 10536 10538 10538 10538 10539 10542 10545 10548 10550 10552 10554 10556 10556 10558 10561 10561 10561 10562 10565 10568 10568 10568 10569 10569 10571 10573 10574 10576 10578 10582 10586 10586 10582 10581 10584 10587
10456 10457 10458 10459 10461 10463 10462 10461 10463 10464 10464 10464 10462 10461 10465 10471 10475 10477 10478 10479 10481 10483 10484 10486 10487 10486 10488 10490 10493 10494 10496 10499 10503 10505 10507 10509 10511 10511 10512 10513 10514 10515 10516 10517 10517 10519 10520 10523 10524 10525 10527 10527 10527 10528 10532 10534 10537 10539 10541 10542 10544 10545 10547 10549 10551 10550 10550 10554 10558 10559 10557 10558 10560 10563 10564 10564 10566 10569 10573 10578 10575 10570 10570 10575 10578
10447 10449 10449 10449 10452 10454 10454 10454 10454 10456 10458 10456 10453 10453 10457 10461 10463 10464 10465 10466 10468 10470 10473 10474 10475 10475 10477 10480 10482 10484 10486 10488 10491 10494 10496 10498 10500 10501 10502 10503 10504 10506 10507 10509 10509 10509 10510 10512 10513 10514 10515 10516 10517 10518 10520 10522 10524 10527 10530 10531 10532 10534 10536 10538 10539 10540 10539 10542 10547 10548 10547 10546 10549 10552 10553 10553 10555 10559 10564 10568 10564 10559 10559 10564 10569
10436 10439 10439 10439 10442 10444 10445 10446 10447 10450 10451 10447 10445 10447 10448 10449 10451 10451 10451 10453 10455 10457 10461 10463 10463 10464 10466 10469 10471 10473 10475 10477 10480 10482 10485 10486 10488 10490 10491 10492 10494 10496 10498 10500 10500 10500 10500 10501 10503 10503 10502 10505 10508 10509 10508 10509 10512 10515 10517 10519 10521 10523 10525 10526 10528 10529 10528 10530 10533 10536 10537 10535 10535 10538 10541 10542 10542 10546 10554 10558 10553 10548 10549 10552 10557
10424 10426 10428 10428 10430 10433 10435 10437 10440 10443 10442 10437 10436 10438 10439 10440 10441 10439 10439 10441 10443 10445 10450 10452 10451 10452 10454 10457 10459 10462 10464 10466 10468 10471 10473 10475 10477 10479 10480 10482 10483 10485 10487 10489 10489 10489 10489 10490 10492 10492 10492 10494 10498 10498 10497 10498 10500 10502 10504 10507 10509 10511 10513 10516 10517 10518 10517 10517 10520 10525 10527 10525 10522 10525 10528 10530 10528 10532 10543 10546 10541 10538 10539 10539 10544
10411 10414 10415 10416 10418 10420 10423 10427 10431 10432 10430 10428 10428 10430 10430 10430 10429 10428 10429 10431 10431 10433 10438 10441 10440 10441 10443 10445 10448 10449 10451 10454 10457 10459 10461 10461 10464 10467 10469 10471 10472 10474 10475 10476 10476 10477 10478 10479 10481 10483 10483 10484 10486 10487 10486 10486 10488 10490 10492 10495 10497 10499 10501 10504 10505 10506 10506 10506 10506 10511 10516 10514 10511 10512 10515 10515 10514 10519 10529 10535 10531 10527 10527 10527 10530
10398 10401 10403 10404 10406 10408 10411 10416 10420 10419 10417 10419 10421 10422 10421 10420 10418 10418 10418 10419 10420 10422 10426 10428 10428 10429 10431 10433 10434 10435 10437 10441 10445 10448 10448 10447 10450 10454 10457 10459 10461 10462 10462 10462 10463 10464 10466 10468 10471 10473 10474 10473 10473 10474 10474 10475 10476 10478 10480 10484 10486 10486 10488 10491 10493 10494 10494 10494 10494 10496 10502 10502 10499 10499 10501 10501 10501 10504 10513 10521 10522 10517 10514 10514 10518
10385 10387 10390 10392 10395 10397 10399 10403 10406 10405 10406 10409 10411 10411 10411 10410 10409 10407 10406 10406 10408 10410 10413 10415 10416 10417 10419 10420 10420 10421 10424 10427 10431 10435 10434 10433 10436 10441 10444 10447 10448 10449 10449 10450 10451 10453 10455 10457 10460 10461 10462 10462 10460 10460 10461 10463 10465 10465 10468 10473 10474 10472 10475 10479 10481 10482 10482 10482 10481 10482 10487 10488 10485 10485 10487 10488 10489 10491 10495 10503 10509 10509 10503 10498 10504
10372 10373 10377 10381 10385 10386 10387 10389 10391 10393 10395 10398 10399 10399 10400 10400 10398 10397 10395 10394 10395 10398 10400 10402 10403 10404 10406 10407 10407 10408 10410 10413 10417 10420 10420 10420 10423 10427 10430 10432 10434 10435 10436 10436 10438 10441 10443 10445 10447 10448 10449 10449 10448 10448 10448 10450 10452 10452 10456 10461 10460 10460 10464 10467 10468 10470 10471 10471 10469 10467 10470 10472 10471 10472 10474 10474 10476 10479 10480 10483 10492 10500 10495 10485 10488
10360 10360 10365 10371 10373 10373 10373 10375 10378 10381 10383 10385 10386 10386 10387 10387 10386 10385 10384 10382 10383 10386 10389 10390 10390 10392 10393 10394 10395 10397 10398 10400 10402 10404 10405 10407 10409 10412 10414 10417 10419 10421 10421 10423 10425 10428 10431 10433 10434 10435 10436 10436 10436 10436 10436 10437 10438 10439 10443 10447 10447 10448 10451 10454 10455 10458 10460 10459 10454 10453 10456 10457 10456 10457 10459 10460 10462 10465 10466 10468 10475 10483 10484 10477 10475